Home > Weather > Citrus Heights > Past weeks

Flag for USA Past Weather in Citrus Heights, California, USA — Yesterday and Last 2 Weeks

Now
75 °F

Sunny.


Feels Like: 77 °F
Forecast: 69 / 109 °F
Wind: 6 mph from Southwest

Location: Mather Field

Current Time: Jul 27, 2016 at 8:43:19 AM

Latest Report: Jul 27, 2016 at 7:45 AM


Visibility: 10 mi

Pressure: 29.86 "Hg

Humidity: 39%

Dew Point: 48 °F

Location of Citrus HeightsLocation

Past Weather in Citrus Heights — Graph

°F

Citrus Heights Temperature Yesterday

Maximum temperature yesterday: 104 °F (at 3:49 PM)
Minimum temperature yesterday: 61 °F (at 4:45 AM)
Average temperature yesterday: 83 °F

High & Low Weather Summary for the Past Weeks

 TemperatureHumidityPressure
High104 °F (Jul 26, 3:49 PM)88% (Jul 16, 6:45 AM)30.09 "Hg (Jul 16, 6:45 AM)
Low54 °F (Jul 17, 5:45 AM)8% (Jul 13, 5:50 PM)29.77 "Hg (Jul 16, 4:45 PM)
Average77 °F42%29.91 "Hg
* Reported Jul 12 6:45 AM — Jul 27 6:45 AM, Citrus Heights, Weather by CustomWeather, © 2016

Note: Actual official high and low records may vary slightly from our data, if they occured in-between our weather recording intervals... More about our weather records

Advertising

Citrus Heights Weather History for the Previous 24 Hours

Scroll right to see more
 ConditionsComfort  
Time TempWeatherWind HumidityBarometerVisibility
6:45 AM
Wed, Jul 27
66 °FClear.No wind49%29.85 "Hg10 mi
5:45 AM68 °FClear.No wind43%29.83 "Hg10 mi
4:45 AM66 °FClear.No wind46%29.82 "Hg10 mi
3:45 AM68 °FClear.No wind43%29.82 "Hg10 mi
2:45 AM66 °FClear.6 mph49%29.82 "Hg10 mi
11:30 PM
Tue, Jul 26
75 °FClear.7 mph39%29.80 "Hg10 mi
10:55 PM77 °FClear.6 mph39%29.80 "Hg10 mi
9:50 PM86 °FClear.5 mph25%29.79 "Hg10 mi
8:45 PM88 °FSunny.3 mph22%29.77 "Hg10 mi
7:50 PM99 °FSunny.3 mph12%29.77 "Hg10 mi
5:45 PM104 °FSunny.3 mph9%29.77 "Hg10 mi
4:48 PM104 °FSunny.6 mph9%29.78 "Hg10 mi
3:49 PM104 °FSunny.7 mph9%29.80 "Hg10 mi
2:56 PM102 °FSunny.6 mph11%29.82 "Hg10 mi
1:59 PM100 °FSunny.7 mph17%29.84 "Hg10 mi
12:50 PM99 °FSunny.7 mph18%29.86 "Hg10 mi
10:45 AM88 °FSunny.5 mph27%29.89 "Hg10 mi
9:45 AM82 °FSunny.3 mph32%29.90 "Hg10 mi
8:50 AM77 °FSunny.No wind36%29.90 "Hg10 mi
Weather by CustomWeather, © 2016

See weather overviewHow to use our weather pages